Year,Month,Day,Hour,Minute,Value (Times are PST for temperature in C)
2010,11,24,00,00,-7.60
2010,11,24,00,01,-7.60
2010,11,24,00,02,-7.50
2010,11,24,00,03,-7.50
2010,11,24,00,04,-7.50
2010,11,24,00,05,-7.50
2010,11,24,00,06,-7.50
2010,11,24,00,07,-7.50
2010,11,24,00,08,-7.50
2010,11,24,00,09,-7.50
2010,11,24,00,10,-7.50
2010,11,24,00,11,-7.50
2010,11,24,00,12,-7.40
2010,11,24,00,13,-7.40
2010,11,24,00,14,-7.40
2010,11,24,00,15,-7.30
2010,11,24,00,16,-7.30
2010,11,24,00,17,-7.30
2010,11,24,00,18,-7.30
2010,11,24,00,19,-7.30
2010,11,24,00,20,-7.20
2010,11,24,00,21,-7.20
2010,11,24,00,22,-7.20
2010,11,24,00,23,-7.20
2010,11,24,00,24,-7.10
2010,11,24,00,25,-7.10
2010,11,24,00,26,-7.10
2010,11,24,00,27,-7.10
2010,11,24,00,28,-7.10
2010,11,24,00,29,-7.00
2010,11,24,00,30,-7.00
2010,11,24,00,31,-7.00
2010,11,24,00,32,-7.00
2010,11,24,00,33,-7.00
2010,11,24,00,34,-6.90
2010,11,24,00,35,-6.90
2010,11,24,00,36,-6.80
2010,11,24,00,37,-6.80
2010,11,24,00,38,-6.80
2010,11,24,00,39,-6.80
2010,11,24,00,40,-6.70
2010,11,24,00,41,-6.70
2010,11,24,00,42,-6.70
2010,11,24,00,43,-6.70
2010,11,24,00,44,-6.70
2010,11,24,00,45,-6.70
2010,11,24,00,46,-6.60
2010,11,24,00,47,-6.60
2010,11,24,00,48,-6.60
2010,11,24,00,49,-6.50
2010,11,24,00,50,-6.50
2010,11,24,00,51,-6.40
2010,11,24,00,52,-6.40
2010,11,24,00,53,-6.40
2010,11,24,00,54,-6.30
2010,11,24,00,55,-6.30
2010,11,24,00,56,-6.30
2010,11,24,00,57,-6.20
2010,11,24,00,58,-6.20
2010,11,24,00,59,-6.20
2010,11,24,01,00,-6.20
2010,11,24,01,01,-6.20
2010,11,24,01,02,-6.10
2010,11,24,01,03,-6.10
2010,11,24,01,04,-6.10
2010,11,24,01,05,-6.10
2010,11,24,01,06,-6.10
2010,11,24,01,07,-6.10
2010,11,24,01,08,-6.00
2010,11,24,01,09,-6.00
2010,11,24,01,10,-6.00
2010,11,24,01,11,-6.00
2010,11,24,01,12,-6.00
2010,11,24,01,13,-6.00
2010,11,24,01,14,-6.00
2010,11,24,01,15,-6.00
2010,11,24,01,16,-6.00
2010,11,24,01,17,-6.00
2010,11,24,01,18,-6.00
2010,11,24,01,19,-6.00
2010,11,24,01,20,-6.00
2010,11,24,01,21,-6.00
2010,11,24,01,22,-5.90
2010,11,24,01,23,-5.90
2010,11,24,01,24,-5.90
2010,11,24,01,25,-5.80
2010,11,24,01,26,-5.80
2010,11,24,01,27,-5.80
2010,11,24,01,28,-5.70
2010,11,24,01,29,-5.70
2010,11,24,01,30,-5.70
2010,11,24,01,31,-5.70
2010,11,24,01,32,-5.60
2010,11,24,01,33,-5.60
2010,11,24,01,34,-5.60
2010,11,24,01,35,-5.60
2010,11,24,01,36,-5.60
2010,11,24,01,37,-5.60
2010,11,24,01,38,-5.60
2010,11,24,01,39,-5.60
2010,11,24,01,40,-5.50
2010,11,24,01,41,-5.50
2010,11,24,01,42,-5.50
2010,11,24,01,43,-5.50
2010,11,24,01,44,-5.50
2010,11,24,01,45,-5.40
2010,11,24,01,46,-5.40
2010,11,24,01,47,-5.40
2010,11,24,01,48,-5.30
2010,11,24,01,49,-5.30
2010,11,24,01,50,-5.30
2010,11,24,01,51,-5.30
2010,11,24,01,52,-5.30
2010,11,24,01,53,-5.30
2010,11,24,01,54,-5.20
2010,11,24,01,55,-5.20
2010,11,24,01,56,-5.20
2010,11,24,01,57,-5.10
2010,11,24,01,58,-5.10
2010,11,24,01,59,-5.10
2010,11,24,02,00,-5.10
2010,11,24,02,01,-5.10
2010,11,24,02,02,-5.00
2010,11,24,02,03,-5.00
2010,11,24,02,04,-5.00
2010,11,24,02,05,-5.10
2010,11,24,02,06,-5.00
2010,11,24,02,07,-5.00
2010,11,24,02,08,-5.00
2010,11,24,02,09,-5.10
2010,11,24,02,10,-5.10
2010,11,24,02,11,-5.00
2010,11,24,02,12,-5.00
2010,11,24,02,13,-5.00
2010,11,24,02,14,-5.00
2010,11,24,02,15,-5.00
2010,11,24,02,16,-5.00
2010,11,24,02,17,-5.00
2010,11,24,02,18,-5.00
2010,11,24,02,19,-4.90
2010,11,24,02,20,-4.90
2010,11,24,02,21,-4.90
2010,11,24,02,22,-4.90
2010,11,24,02,23,-4.90
2010,11,24,02,24,-4.90
2010,11,24,02,25,-4.90
2010,11,24,02,26,-4.90
2010,11,24,02,27,-4.90
2010,11,24,02,28,-4.80
2010,11,24,02,29,-4.80
2010,11,24,02,30,-4.80
2010,11,24,02,31,-4.80
2010,11,24,02,32,-4.70
2010,11,24,02,33,-4.70
2010,11,24,02,34,-4.70
2010,11,24,02,35,-4.70
2010,11,24,02,36,-4.60
2010,11,24,02,37,-4.60
2010,11,24,02,38,-4.60
2010,11,24,02,39,-4.60
2010,11,24,02,40,-4.60
2010,11,24,02,41,-4.60
2010,11,24,02,42,-4.60
2010,11,24,02,43,-4.60
2010,11,24,02,44,-4.60
2010,11,24,02,45,-4.60
2010,11,24,02,46,-4.60
2010,11,24,02,47,-4.60
2010,11,24,02,48,-4.60
2010,11,24,02,49,-4.60
2010,11,24,02,50,-4.60
2010,11,24,02,51,-4.50
2010,11,24,02,52,-4.50
2010,11,24,02,53,-4.40
2010,11,24,02,54,-4.40
2010,11,24,02,55,-4.30
2010,11,24,02,56,-4.30
2010,11,24,02,57,-4.20
2010,11,24,02,58,-4.10
2010,11,24,02,59,-4.10
2010,11,24,03,00,-4.10
2010,11,24,03,01,-4.00
2010,11,24,03,02,-4.00
2010,11,24,03,03,-4.00
2010,11,24,03,04,-3.90
2010,11,24,03,05,-3.90
2010,11,24,03,06,-3.90
2010,11,24,03,07,-4.00
2010,11,24,03,08,-4.00
2010,11,24,03,09,-4.00
2010,11,24,03,10,-4.00
2010,11,24,03,11,-4.10
2010,11,24,03,12,-4.10
2010,11,24,03,13,-4.10
2010,11,24,03,14,-4.10
2010,11,24,03,15,-4.10
2010,11,24,03,16,-4.10
2010,11,24,03,17,-4.10
2010,11,24,03,18,-4.20
2010,11,24,03,19,-4.20
2010,11,24,03,20,-4.20
2010,11,24,03,21,-4.20
2010,11,24,03,22,-4.20
2010,11,24,03,23,-4.20
2010,11,24,03,24,-4.10
2010,11,24,03,25,-4.10
2010,11,24,03,26,-4.10
2010,11,24,03,27,-4.10
2010,11,24,03,28,-4.20
2010,11,24,03,29,-4.20
2010,11,24,03,30,-4.10
2010,11,24,03,31,-4.10
2010,11,24,03,32,-4.10
2010,11,24,03,33,-4.10
2010,11,24,03,34,-4.10
2010,11,24,03,35,-4.10
2010,11,24,03,36,-4.10
2010,11,24,03,37,-4.10
2010,11,24,03,38,-4.10
2010,11,24,03,39,-4.10
2010,11,24,03,40,-4.10
2010,11,24,03,41,-4.10
2010,11,24,03,42,-4.10
2010,11,24,03,43,-4.10
2010,11,24,03,44,-4.10
2010,11,24,03,45,-4.10
2010,11,24,03,46,-4.00
2010,11,24,03,47,-4.00
2010,11,24,03,48,-4.00
2010,11,24,03,49,-3.90
2010,11,24,03,50,-3.90
2010,11,24,03,51,-3.90
2010,11,24,03,52,-3.90
2010,11,24,03,53,-3.90
2010,11,24,03,54,-3.90
2010,11,24,03,55,-3.90
2010,11,24,03,56,-3.90
2010,11,24,03,57,-3.90
2010,11,24,03,58,-3.80
2010,11,24,03,59,-3.80
2010,11,24,04,00,-3.80
2010,11,24,04,01,-3.80
2010,11,24,04,02,-3.70
2010,11,24,04,03,-3.70
2010,11,24,04,04,-3.70
2010,11,24,04,05,-3.70
2010,11,24,04,06,-3.70
2010,11,24,04,07,-3.70
2010,11,24,04,08,-3.70
2010,11,24,04,09,-3.70
2010,11,24,04,10,-3.70
2010,11,24,04,11,-3.70
2010,11,24,04,12,-3.70
2010,11,24,04,13,-3.60
2010,11,24,04,14,-3.60
2010,11,24,04,15,-3.60
2010,11,24,04,16,-3.60
2010,11,24,04,17,-3.60
2010,11,24,04,18,-3.60
2010,11,24,04,19,-3.60
2010,11,24,04,20,-3.60
2010,11,24,04,21,-3.60
2010,11,24,04,22,-3.60
2010,11,24,04,23,-3.50
2010,11,24,04,24,-3.50
2010,11,24,04,25,-3.50
2010,11,24,04,26,-3.50
2010,11,24,04,27,-3.50
2010,11,24,04,28,-3.40
2010,11,24,04,29,-3.40
2010,11,24,04,30,-3.40
2010,11,24,04,31,-3.30
2010,11,24,04,32,-3.30
2010,11,24,04,33,-3.30
2010,11,24,04,34,-3.30
2010,11,24,04,35,-3.30
2010,11,24,04,36,-3.30
2010,11,24,04,37,-3.40
2010,11,24,04,38,-3.40
2010,11,24,04,39,-3.40
2010,11,24,04,40,-3.40
2010,11,24,04,41,-3.40
2010,11,24,04,42,-3.40
2010,11,24,04,43,-3.40
2010,11,24,04,44,-3.30
2010,11,24,04,45,-3.30
2010,11,24,04,46,-3.30
2010,11,24,04,47,-3.30
2010,11,24,04,48,-3.30
2010,11,24,04,49,-3.40
2010,11,24,04,50,-3.40
2010,11,24,04,51,-3.40
2010,11,24,04,52,-3.40
2010,11,24,04,53,-3.40
2010,11,24,04,54,-3.40
2010,11,24,04,55,-3.40
2010,11,24,04,56,-3.40
2010,11,24,04,57,-3.40
2010,11,24,04,58,-3.40
2010,11,24,04,59,-3.40
2010,11,24,05,00,-3.40
2010,11,24,05,01,-3.40
2010,11,24,05,02,-3.40
2010,11,24,05,03,-3.40
2010,11,24,05,04,-3.40
2010,11,24,05,05,-3.50
2010,11,24,05,06,-3.50
2010,11,24,05,07,-3.50
2010,11,24,05,08,-3.50
2010,11,24,05,09,-3.50
2010,11,24,05,10,-3.50
2010,11,24,05,11,-3.50
2010,11,24,05,12,-3.50
2010,11,24,05,13,-3.50
2010,11,24,05,14,-3.50
2010,11,24,05,15,-3.50
2010,11,24,05,16,-3.50
2010,11,24,05,17,-3.40
2010,11,24,05,18,-3.40
2010,11,24,05,19,-3.40
2010,11,24,05,20,-3.40
2010,11,24,05,21,-3.40
2010,11,24,05,22,-3.40
2010,11,24,05,23,-3.40
2010,11,24,05,24,-3.40
2010,11,24,05,25,-3.40
2010,11,24,05,26,-3.30
2010,11,24,05,27,-3.30
2010,11,24,05,28,-3.30
2010,11,24,05,29,-3.30
2010,11,24,05,30,-3.30
2010,11,24,05,31,-3.30
2010,11,24,05,32,-3.30
2010,11,24,05,33,-3.30
2010,11,24,05,34,-3.20
2010,11,24,05,35,-3.20
2010,11,24,05,36,-3.20
2010,11,24,05,37,-3.20
2010,11,24,05,38,-3.20
2010,11,24,05,39,-3.20
2010,11,24,05,40,-3.20
2010,11,24,05,41,-3.20
2010,11,24,05,42,-3.20
2010,11,24,05,43,-3.20
2010,11,24,05,44,-3.20
2010,11,24,05,45,-3.20
2010,11,24,05,46,-3.20
2010,11,24,05,47,-3.20
2010,11,24,05,48,-3.20
2010,11,24,05,49,-3.20
2010,11,24,05,50,-3.20
2010,11,24,05,51,-3.20
2010,11,24,05,52,-3.20
2010,11,24,05,53,-3.20
2010,11,24,05,54,-3.20
2010,11,24,05,55,-3.20
2010,11,24,05,56,-3.20
2010,11,24,05,57,-3.20
2010,11,24,05,58,-3.20
2010,11,24,05,59,-3.20
2010,11,24,06,00,-3.20
2010,11,24,06,01,-3.20
2010,11,24,06,02,-3.20
2010,11,24,06,03,-3.20
2010,11,24,06,04,-3.20
2010,11,24,06,05,-3.20
2010,11,24,06,06,-3.20
2010,11,24,06,07,-3.20
2010,11,24,06,08,-3.20
2010,11,24,06,09,-3.20
2010,11,24,06,10,-3.20
2010,11,24,06,11,-3.20
2010,11,24,06,12,-3.20
2010,11,24,06,13,-3.20
2010,11,24,06,14,-3.20
2010,11,24,06,15,-3.20
2010,11,24,06,16,-3.30
2010,11,24,06,17,-3.20
2010,11,24,06,18,-3.20
2010,11,24,06,19,-3.20
2010,11,24,06,20,-3.20
2010,11,24,06,21,-3.20
2010,11,24,06,22,-3.20
2010,11,24,06,23,-3.20
2010,11,24,06,24,-3.20
2010,11,24,06,25,-3.20
2010,11,24,06,26,-3.20
2010,11,24,06,27,-3.20
2010,11,24,06,28,-3.20
2010,11,24,06,29,-3.20
2010,11,24,06,30,-3.20
2010,11,24,06,31,-3.20
2010,11,24,06,32,-3.20
2010,11,24,06,33,-3.20
2010,11,24,06,34,-3.20
2010,11,24,06,35,-3.20
2010,11,24,06,36,-3.20
2010,11,24,06,37,-3.20
2010,11,24,06,38,-3.20
2010,11,24,06,39,-3.20
2010,11,24,06,40,-3.20
2010,11,24,06,41,-3.20
2010,11,24,06,42,-3.20
2010,11,24,06,43,-3.20
2010,11,24,06,44,-3.20
2010,11,24,06,45,-3.20
2010,11,24,06,46,-3.20
2010,11,24,06,47,-3.20
2010,11,24,06,48,-3.30
2010,11,24,06,49,-3.30
2010,11,24,06,50,-3.30
2010,11,24,06,51,-3.30
2010,11,24,06,52,-3.30
2010,11,24,06,53,-3.30
2010,11,24,06,54,-3.30
2010,11,24,06,55,-3.30
2010,11,24,06,56,-3.30
2010,11,24,06,57,-3.30
2010,11,24,06,58,-3.30
2010,11,24,06,59,-3.30
2010,11,24,07,00,-3.30
2010,11,24,07,01,-3.20
2010,11,24,07,02,-3.20
2010,11,24,07,03,-3.20
2010,11,24,07,04,-3.20
2010,11,24,07,05,-3.20
2010,11,24,07,06,-3.20
2010,11,24,07,07,-3.20
2010,11,24,07,08,-3.20
2010,11,24,07,09,-3.20
2010,11,24,07,10,-3.20
2010,11,24,07,11,-3.20
2010,11,24,07,12,-3.20
2010,11,24,07,13,-3.20
2010,11,24,07,14,-3.20
2010,11,24,07,15,-3.20
2010,11,24,07,16,-3.20
2010,11,24,07,17,-3.10
2010,11,24,07,18,-3.10
2010,11,24,07,19,-3.10
2010,11,24,07,20,-3.10
2010,11,24,07,21,-3.10
2010,11,24,07,22,-3.10
2010,11,24,07,23,-3.10
2010,11,24,07,24,-3.10
2010,11,24,07,25,-3.10
2010,11,24,07,26,-3.10
2010,11,24,07,27,-3.10
2010,11,24,07,28,-3.10
2010,11,24,07,29,-3.10
2010,11,24,07,30,-3.10
2010,11,24,07,31,-3.10
2010,11,24,07,32,-3.10
2010,11,24,07,33,-3.10
2010,11,24,07,34,-3.00
2010,11,24,07,35,-3.00
2010,11,24,07,36,-3.00
2010,11,24,07,37,-3.00
2010,11,24,07,38,-3.00
2010,11,24,07,39,-3.00
2010,11,24,07,40,-3.00
2010,11,24,07,41,-3.00
2010,11,24,07,42,-2.90
2010,11,24,07,43,-2.90
2010,11,24,07,44,-2.90
2010,11,24,07,45,-2.90
2010,11,24,07,46,-2.90
2010,11,24,07,47,-2.90
2010,11,24,07,48,-2.90
2010,11,24,07,49,-2.90
2010,11,24,07,50,-2.90
2010,11,24,07,51,-2.90
2010,11,24,07,52,-2.90
2010,11,24,07,53,-2.90
2010,11,24,07,54,-2.90
2010,11,24,07,55,-2.90
2010,11,24,07,56,-2.90
2010,11,24,07,57,-2.90
2010,11,24,07,58,-2.90
2010,11,24,07,59,-2.90
2010,11,24,08,00,-2.90
2010,11,24,08,01,-2.90
2010,11,24,08,02,-2.90
2010,11,24,08,03,-2.90
2010,11,24,08,04,-2.90
2010,11,24,08,05,-2.90
2010,11,24,08,06,-2.90
2010,11,24,08,07,-2.90
2010,11,24,08,08,-2.90
2010,11,24,08,09,-2.90
2010,11,24,08,10,-2.90
2010,11,24,08,11,-2.90
2010,11,24,08,12,-2.90
2010,11,24,08,13,-2.90
2010,11,24,08,14,-2.90
2010,11,24,08,15,-2.90
2010,11,24,08,16,-2.90
2010,11,24,08,17,-2.90
2010,11,24,08,18,-2.90
2010,11,24,08,19,-2.90
2010,11,24,08,20,-2.90
2010,11,24,08,21,-2.80
2010,11,24,08,22,-2.90
2010,11,24,08,23,-2.80
2010,11,24,08,24,-2.80
2010,11,24,08,25,-2.80
2010,11,24,08,26,-2.80
2010,11,24,08,27,-2.80
2010,11,24,08,28,-2.80
2010,11,24,08,29,-2.80
2010,11,24,08,30,-2.80
2010,11,24,08,31,-2.80
2010,11,24,08,32,-2.80
2010,11,24,08,33,-2.80
2010,11,24,08,34,-2.80
2010,11,24,08,35,-2.80
2010,11,24,08,36,-2.80
2010,11,24,08,37,-2.80
2010,11,24,08,38,-2.80
2010,11,24,08,39,-2.80
2010,11,24,08,40,-2.80
2010,11,24,08,41,-2.80
2010,11,24,08,42,-2.80
2010,11,24,08,43,-2.80
2010,11,24,08,44,-2.80
2010,11,24,08,45,-2.80
2010,11,24,08,46,-2.80
2010,11,24,08,47,-2.80
2010,11,24,08,48,-2.80
2010,11,24,08,49,-2.80
2010,11,24,08,50,-2.80
2010,11,24,08,51,-2.80
2010,11,24,08,52,-2.80
2010,11,24,08,53,-2.80
2010,11,24,08,54,-2.80
2010,11,24,08,55,-2.80
2010,11,24,08,56,-2.80
2010,11,24,08,57,-2.80
2010,11,24,08,58,-2.80
2010,11,24,08,59,-2.80
2010,11,24,09,00,-2.80
2010,11,24,09,01,-2.80
2010,11,24,09,02,-2.80
2010,11,24,09,03,-2.80
2010,11,24,09,04,-2.80
2010,11,24,09,05,-2.80
2010,11,24,09,06,-2.80
2010,11,24,09,07,-2.80
2010,11,24,09,08,-2.80
2010,11,24,09,09,-2.80
2010,11,24,09,10,-2.80
2010,11,24,09,11,-2.80
2010,11,24,09,12,-2.80
2010,11,24,09,13,-2.80
2010,11,24,09,14,-2.80
2010,11,24,09,15,-2.80
2010,11,24,09,16,-2.80
2010,11,24,09,17,-2.80
2010,11,24,09,18,-2.80
2010,11,24,09,19,-2.80
2010,11,24,09,20,-2.80
2010,11,24,09,21,-2.70
2010,11,24,09,22,-2.70
2010,11,24,09,23,-2.70
2010,11,24,09,24,-2.70
2010,11,24,09,25,-2.70
2010,11,24,09,26,-2.70
2010,11,24,09,27,-2.70
2010,11,24,09,28,-2.70
2010,11,24,09,29,-2.70
2010,11,24,09,30,-2.70
2010,11,24,09,31,-2.70
2010,11,24,09,32,-2.60
2010,11,24,09,33,-2.60
2010,11,24,09,34,-2.60
2010,11,24,09,35,-2.60
2010,11,24,09,36,-2.60
2010,11,24,09,37,-2.60
2010,11,24,09,38,-2.60
2010,11,24,09,39,-2.60
2010,11,24,09,40,-2.60
2010,11,24,09,41,-2.60
2010,11,24,09,42,-2.60
2010,11,24,09,43,-2.50
2010,11,24,09,44,-2.50
2010,11,24,09,45,-2.50
2010,11,24,09,46,-2.50
2010,11,24,09,47,-2.40
2010,11,24,09,48,-2.40
2010,11,24,09,49,-2.40
2010,11,24,09,50,-2.40
2010,11,24,09,51,-2.40
2010,11,24,09,52,-2.40
2010,11,24,09,53,-2.40
2010,11,24,09,54,-2.40
2010,11,24,09,55,-2.40
2010,11,24,09,56,-2.30
2010,11,24,09,57,-2.30
2010,11,24,09,58,-2.30
2010,11,24,09,59,-2.30
2010,11,24,10,00,-2.30
2010,11,24,10,01,-2.30
2010,11,24,10,02,-2.30
2010,11,24,10,03,-2.30
2010,11,24,10,04,-2.30
2010,11,24,10,05,-2.30
2010,11,24,10,06,-2.30
2010,11,24,10,07,-2.30
2010,11,24,10,08,-2.30
2010,11,24,10,09,-2.30
2010,11,24,10,10,-2.30
2010,11,24,10,11,-2.30
2010,11,24,10,12,-2.30
2010,11,24,10,13,-2.30
2010,11,24,10,14,-2.30
2010,11,24,10,15,-2.30
2010,11,24,10,16,-2.30
2010,11,24,10,17,-2.30
2010,11,24,10,18,-2.30
2010,11,24,10,19,-2.30
2010,11,24,10,20,-2.30
2010,11,24,10,21,-2.30
2010,11,24,10,22,-2.30
2010,11,24,10,23,-2.30
2010,11,24,10,24,-2.30
2010,11,24,10,25,-2.30
2010,11,24,10,26,-2.30
2010,11,24,10,27,-2.30
2010,11,24,10,28,-2.30
2010,11,24,10,29,-2.30
2010,11,24,10,30,-2.30
2010,11,24,10,31,-2.30
2010,11,24,10,32,-2.30
2010,11,24,10,33,-2.20
2010,11,24,10,34,-2.30
2010,11,24,10,35,-2.30
2010,11,24,10,36,-2.20
2010,11,24,10,37,-2.20
2010,11,24,10,38,-2.20
2010,11,24,10,39,-2.20
2010,11,24,10,40,-2.20
2010,11,24,10,41,-2.20
2010,11,24,10,42,-2.20
2010,11,24,10,43,-2.20
2010,11,24,10,44,-2.20
2010,11,24,10,45,-2.20
2010,11,24,10,46,-2.10
2010,11,24,10,47,-2.10
2010,11,24,10,48,-2.10
2010,11,24,10,49,-2.10
2010,11,24,10,50,-2.10
2010,11,24,10,51,-2.10
2010,11,24,10,52,-2.10
2010,11,24,10,53,-2.10
2010,11,24,10,54,-2.10
2010,11,24,10,55,-2.10
2010,11,24,10,56,-2.10
2010,11,24,10,57,-2.10
2010,11,24,10,58,-2.10
2010,11,24,10,59,-2.10
2010,11,24,11,00,-2.10
2010,11,24,11,01,-2.00
2010,11,24,11,02,-2.00
2010,11,24,11,03,-2.00
2010,11,24,11,04,-2.00
2010,11,24,11,05,-1.90
2010,11,24,11,06,-1.90
2010,11,24,11,07,-1.90
2010,11,24,11,08,-1.90
2010,11,24,11,09,-1.90
2010,11,24,11,10,-1.90
2010,11,24,11,11,-1.90
2010,11,24,11,12,-1.90
2010,11,24,11,13,-1.90
2010,11,24,11,14,-1.90
2010,11,24,11,15,-1.90
2010,11,24,11,16,-1.90
2010,11,24,11,17,-1.90
2010,11,24,11,18,-1.90
2010,11,24,11,19,-1.90
2010,11,24,11,20,-1.90
2010,11,24,11,21,-1.90
2010,11,24,11,22,-1.90
2010,11,24,11,23,-1.80
2010,11,24,11,24,-1.80
2010,11,24,11,25,-1.80
2010,11,24,11,26,-1.80
2010,11,24,11,27,-1.80
2010,11,24,11,28,-1.80
2010,11,24,11,29,-1.80
2010,11,24,11,30,-1.70
2010,11,24,11,31,-1.70
2010,11,24,11,32,-1.70
2010,11,24,11,33,-1.70
2010,11,24,11,34,-1.70
2010,11,24,11,35,-1.60
2010,11,24,11,36,-1.60
2010,11,24,11,37,-1.60
2010,11,24,11,38,-1.60
2010,11,24,11,39,-1.60
2010,11,24,11,40,-1.60
2010,11,24,11,41,-1.60
2010,11,24,11,42,-1.60
2010,11,24,11,43,-1.60
2010,11,24,11,44,-1.50
2010,11,24,11,45,-1.50
2010,11,24,11,46,-1.50
2010,11,24,11,47,-1.50
2010,11,24,11,48,-1.50
2010,11,24,11,49,-1.50
2010,11,24,11,50,-1.50
2010,11,24,11,51,-1.50
2010,11,24,11,52,-1.40
2010,11,24,11,53,-1.40
2010,11,24,11,54,-1.40
2010,11,24,11,55,-1.40
2010,11,24,11,56,-1.40
2010,11,24,11,57,-1.30
2010,11,24,11,58,-1.30
2010,11,24,11,59,-1.30
2010,11,24,12,00,-1.30
2010,11,24,12,01,-1.30
2010,11,24,12,02,-1.30
2010,11,24,12,03,-1.30
2010,11,24,12,04,-1.30
2010,11,24,12,05,-1.30
2010,11,24,12,06,-1.20
2010,11,24,12,07,-1.20
2010,11,24,12,08,-1.20
2010,11,24,12,09,-1.20
2010,11,24,12,10,-1.20
2010,11,24,12,11,-1.20
2010,11,24,12,12,-1.20
2010,11,24,12,13,-1.20
2010,11,24,12,14,-1.20
2010,11,24,12,15,-1.20
2010,11,24,12,16,-1.20
2010,11,24,12,17,-1.20
2010,11,24,12,18,-1.20
2010,11,24,12,19,-1.20
2010,11,24,12,20,-1.10
2010,11,24,12,21,-1.10
2010,11,24,12,22,-1.10
2010,11,24,12,23,-1.10
2010,11,24,12,24,-1.10
2010,11,24,12,25,-1.10
2010,11,24,12,26,-1.10
2010,11,24,12,27,-1.00
2010,11,24,12,28,-1.00
2010,11,24,12,29,-1.00
2010,11,24,12,30,-1.00
2010,11,24,12,31,-1.10
2010,11,24,12,32,-1.10
2010,11,24,12,33,-1.10
2010,11,24,12,34,-1.10
2010,11,24,12,35,-1.10
2010,11,24,12,36,-1.10
2010,11,24,12,37,-1.10
2010,11,24,12,38,-1.10
2010,11,24,12,39,-1.10
2010,11,24,12,40,-1.10
2010,11,24,12,41,-1.10
2010,11,24,12,42,-1.10
2010,11,24,12,43,-1.10
2010,11,24,12,44,-1.10
2010,11,24,12,45,-1.10
2010,11,24,12,46,-1.10
2010,11,24,12,47,-1.10
2010,11,24,12,48,-1.10
2010,11,24,12,49,-1.00
2010,11,24,12,50,-1.00
2010,11,24,12,51,-1.00
2010,11,24,12,52,-1.00
2010,11,24,12,53,-1.00
2010,11,24,12,54,-1.00
2010,11,24,12,55,-1.00
2010,11,24,12,56,-1.00
2010,11,24,12,57,-1.00
2010,11,24,12,58,-1.00
2010,11,24,12,59,-1.00
2010,11,24,13,00,-0.90
2010,11,24,13,01,-0.90
2010,11,24,13,02,-0.90
2010,11,24,13,03,-0.90
2010,11,24,13,04,-0.80
2010,11,24,13,05,-0.80
2010,11,24,13,06,-0.80
2010,11,24,13,07,-0.80
2010,11,24,13,08,-0.80
2010,11,24,13,09,-0.80
2010,11,24,13,10,-0.80
2010,11,24,13,11,-0.80
2010,11,24,13,12,-0.80
2010,11,24,13,13,-0.80
2010,11,24,13,14,-0.80
2010,11,24,13,15,-0.80
2010,11,24,13,16,-0.80
2010,11,24,13,17,-0.80
2010,11,24,13,18,-0.80
2010,11,24,13,19,-0.80
2010,11,24,13,20,-0.80
2010,11,24,13,21,-0.80
2010,11,24,13,22,-0.80
2010,11,24,13,23,-0.80
2010,11,24,13,24,-0.80
2010,11,24,13,25,-0.80
2010,11,24,13,26,-0.80
2010,11,24,13,27,-0.80
2010,11,24,13,28,-0.90
2010,11,24,13,29,-0.90
2010,11,24,13,30,-0.90
2010,11,24,13,31,-0.90
2010,11,24,13,32,-0.90
2010,11,24,13,33,-0.90
2010,11,24,13,34,-0.90
2010,11,24,13,35,-0.80
2010,11,24,13,36,-0.80
2010,11,24,13,37,-0.80
2010,11,24,13,38,-0.80
2010,11,24,13,39,-0.80
2010,11,24,13,40,-0.70
2010,11,24,13,41,-0.70
2010,11,24,13,42,-0.70
2010,11,24,13,43,-0.70
2010,11,24,13,44,-0.70
2010,11,24,13,45,-0.70
2010,11,24,13,46,-0.70
2010,11,24,13,47,-0.70
2010,11,24,13,48,-0.70
2010,11,24,13,49,-0.70
2010,11,24,13,50,-0.70
2010,11,24,13,51,-0.70
2010,11,24,13,52,-0.60
2010,11,24,13,53,-0.60
2010,11,24,13,54,-0.60
2010,11,24,13,55,-0.60
2010,11,24,13,56,-0.60
2010,11,24,13,57,-0.60
2010,11,24,13,58,-0.60
2010,11,24,13,59,-0.60
2010,11,24,14,00,-0.60
2010,11,24,14,01,-0.60
2010,11,24,14,02,-0.70
2010,11,24,14,03,-0.70
2010,11,24,14,04,-0.70
2010,11,24,14,05,-0.70
2010,11,24,14,06,-0.70
2010,11,24,14,07,-0.70
2010,11,24,14,08,-0.70
2010,11,24,14,09,-0.70
2010,11,24,14,10,-0.70
2010,11,24,14,11,-0.70
2010,11,24,14,12,-0.70
2010,11,24,14,13,-0.70
2010,11,24,14,14,-0.70
2010,11,24,14,15,-0.70
2010,11,24,14,16,-0.70
2010,11,24,14,17,-0.70
2010,11,24,14,18,-0.70
2010,11,24,14,19,-0.70
2010,11,24,14,20,-0.70
2010,11,24,14,21,-0.70
2010,11,24,14,22,-0.70
2010,11,24,14,23,-0.70
2010,11,24,14,24,-0.70
2010,11,24,14,25,-0.70
2010,11,24,14,26,-0.70
2010,11,24,14,27,-0.70
2010,11,24,14,28,-0.70
2010,11,24,14,29,-0.70
2010,11,24,14,30,-0.70
2010,11,24,14,31,-0.70
2010,11,24,14,32,-0.70
2010,11,24,14,33,-0.70
2010,11,24,14,34,-0.70
2010,11,24,14,35,-0.70
2010,11,24,14,36,-0.70
2010,11,24,14,37,-0.70
2010,11,24,14,38,-0.70
2010,11,24,14,39,-0.70
2010,11,24,14,40,-0.60
2010,11,24,14,41,-0.60
2010,11,24,14,42,-0.60
2010,11,24,14,43,-0.60
2010,11,24,14,44,-0.60
2010,11,24,14,45,-0.60
2010,11,24,14,46,-0.60
2010,11,24,14,47,-0.60
2010,11,24,14,48,-0.60
2010,11,24,14,49,-0.60
2010,11,24,14,50,-0.60
2010,11,24,14,51,-0.60
2010,11,24,14,52,-0.60
2010,11,24,14,53,-0.60
2010,11,24,14,54,-0.60
2010,11,24,14,55,-0.60
2010,11,24,14,56,-0.60
2010,11,24,14,57,-0.60
2010,11,24,14,58,-0.60
2010,11,24,14,59,-0.60
2010,11,24,15,00,-0.60
2010,11,24,15,01,-0.60
2010,11,24,15,02,-0.70
2010,11,24,15,03,-0.70
2010,11,24,15,04,-0.70
2010,11,24,15,05,-0.70
2010,11,24,15,06,-0.70
2010,11,24,15,07,-0.70
2010,11,24,15,08,-0.70
2010,11,24,15,09,-0.70
2010,11,24,15,10,-0.80
2010,11,24,15,11,-0.80
2010,11,24,15,12,-0.80
2010,11,24,15,13,-0.80
2010,11,24,15,14,-0.80
2010,11,24,15,15,-0.80
2010,11,24,15,16,-0.80
2010,11,24,15,17,-0.90
2010,11,24,15,18,-0.90
2010,11,24,15,19,-0.90
2010,11,24,15,20,-0.90
2010,11,24,15,21,-0.90
2010,11,24,15,22,-0.90
2010,11,24,15,23,-0.90
2010,11,24,15,24,-0.90
2010,11,24,15,25,-0.90
2010,11,24,15,26,-0.90
2010,11,24,15,27,-0.90
2010,11,24,15,28,-0.90
2010,11,24,15,29,-0.90
2010,11,24,15,30,-1.00
2010,11,24,15,31,-1.00
2010,11,24,15,32,-1.00
2010,11,24,15,33,-1.00
2010,11,24,15,34,-1.00
2010,11,24,15,35,-1.00
2010,11,24,15,36,-1.00
2010,11,24,15,37,-1.00
2010,11,24,15,38,-1.00
2010,11,24,15,39,-1.00
2010,11,24,15,40,-1.00
2010,11,24,15,41,-1.00
2010,11,24,15,42,-1.00
2010,11,24,15,43,-1.00
2010,11,24,15,44,-1.00
2010,11,24,15,45,-1.00
2010,11,24,15,46,-1.10
2010,11,24,15,47,-1.10
2010,11,24,15,48,-1.10
2010,11,24,15,49,-1.10
2010,11,24,15,50,-1.10
2010,11,24,15,51,-1.10
2010,11,24,15,52,-1.10
2010,11,24,15,53,-1.10
2010,11,24,15,54,-1.10
2010,11,24,15,55,-1.00
2010,11,24,15,56,-1.00
2010,11,24,15,57,-1.00
2010,11,24,15,58,-1.00
2010,11,24,15,59,-1.00
2010,11,24,16,00,-1.00
2010,11,24,16,01,-1.10
2010,11,24,16,02,-1.10
2010,11,24,16,03,-1.10
2010,11,24,16,04,-1.10
2010,11,24,16,05,-1.10
2010,11,24,16,06,-1.10
2010,11,24,16,07,-1.10
2010,11,24,16,08,-1.00
2010,11,24,16,09,-1.00
2010,11,24,16,10,-1.10
2010,11,24,16,11,-1.10
2010,11,24,16,12,-1.10
2010,11,24,16,13,-1.10
2010,11,24,16,14,-1.10
2010,11,24,16,15,-1.00
2010,11,24,16,16,-1.00
2010,11,24,16,17,-1.00
2010,11,24,16,18,-1.00
2010,11,24,16,19,-1.00
2010,11,24,16,20,-1.00
2010,11,24,16,21,-1.00
2010,11,24,16,22,-1.00
2010,11,24,16,23,-1.00
2010,11,24,16,24,-1.00
2010,11,24,16,25,-1.00
2010,11,24,16,26,-1.00
2010,11,24,16,27,-1.00
2010,11,24,16,28,-1.00
2010,11,24,16,29,-1.00
2010,11,24,16,30,-1.00
2010,11,24,16,31,-1.00
2010,11,24,16,32,-1.00
2010,11,24,16,33,-1.00
2010,11,24,16,34,-1.00
2010,11,24,16,35,-1.10
2010,11,24,16,36,-1.10
2010,11,24,16,37,-1.10
2010,11,24,16,38,-1.10
2010,11,24,16,39,-1.10
2010,11,24,16,40,-1.10
2010,11,24,16,41,-1.10
2010,11,24,16,42,-1.10
2010,11,24,16,43,-1.10
2010,11,24,16,44,-1.10
2010,11,24,16,45,-1.10
2010,11,24,16,46,-1.10
2010,11,24,16,47,-1.10
2010,11,24,16,48,-1.10
2010,11,24,16,49,-1.10
2010,11,24,16,50,-1.10
2010,11,24,16,51,-1.10
2010,11,24,16,52,-1.10
2010,11,24,16,53,-1.10
2010,11,24,16,54,-1.10
2010,11,24,16,55,-1.10
2010,11,24,16,56,-1.10
2010,11,24,16,57,-1.10
2010,11,24,16,58,-1.10
2010,11,24,16,59,-1.10
2010,11,24,17,00,-1.10
2010,11,24,17,01,-1.10
2010,11,24,17,02,-1.10
2010,11,24,17,03,-1.10
2010,11,24,17,04,-1.10
2010,11,24,17,05,-1.10
2010,11,24,17,06,-1.10
2010,11,24,17,07,-1.10
2010,11,24,17,08,-1.10
2010,11,24,17,09,-1.10
2010,11,24,17,10,-1.10
2010,11,24,17,11,-1.10
2010,11,24,17,12,-1.10
2010,11,24,17,13,-1.10
2010,11,24,17,14,-1.10
2010,11,24,17,15,-1.10
2010,11,24,17,16,-1.10
2010,11,24,17,17,-1.10
2010,11,24,17,18,-1.10
2010,11,24,17,19,-1.10